GFSSW_925_rhum_234.txt.gz
RH
54 52 48 46 43 41 38 33 30 27 24 23 19 18 17 28 23 22 20 20 22 18 19 20 17 15 13 13 12 10 15 14 10 8 10 9 9 8 8 10 10 11 18 23 35
57 53 52 47 45 41 41 36 32 28 25 22 19 17 16 23 29 22 21 20 20 19 20 16 13 12 13 12 11 12 14 12 8 8 10 10 9 8 8 8 12 14 18 30 33
58 55 52 50 46 43 42 38 34 31 25 22 18 16 15 23 29 20 20 21 20 20 21 17 13 13 14 12 10 10 12 10 9 9 9 9 9 7 8 8 8 13 18 22 29
60 56 53 49 47 44 42 40 36 33 29 22 19 15 13 31 29 20 19 20 21 21 22 17 14 15 16 15 11 12 9 8 9 9 10 11 9 9 9 8 8 8 13 17 25
62 58 54 50 45 44 42 42 38 34 30 24 18 15 18 25 19 22 20 22 23 24 19 16 17 16 17 14 12 13 12 9 8 8 10 10 10 10 11 9 8 8 8 13 18
66 61 55 54 47 43 44 43 37 34 30 23 19 18 44 23 17 22 22 22 21 18 16 14 15 14 17 16 15 12 12 12 11 11 9 10 10 10 10 9 9 9 9 10 12
64 63 57 54 49 43 43 43 38 33 27 23 19 31 30 20 15 18 19 18 16 15 12 12 13 15 15 18 14 14 15 14 13 11 11 10 12 11 8 8 8 8 10 10 10
67 64 59 54 49 44 43 42 36 32 24 20 28 48 31 15 17 16 18 17 16 15 14 14 14 16 17 15 18 19 18 20 13 10 10 11 16 10 8 9 8 8 9 9 11
68 67 60 56 49 44 46 40 34 29 20 29 39 43 28 22 19 16 17 17 16 16 16 17 17 20 19 22 23 20 25 19 15 9 10 12 15 10 9 9 10 10 10 10 10
64 68 64 57 49 44 46 41 28 31 28 48 33 26 20 16 14 17 18 18 15 16 18 19 22 26 23 24 31 21 20 18 16 11 11 12 13 10 8 10 11 11 10 11 11
56 64 66 57 49 49 50 43 36 44 33 22 19 16 15 16 22 18 16 16 15 17 23 18 25 28 22 20 19 18 19 20 16 11 13 14 15 13 10 10 10 11 11 11 12
69 60 65 62 54 61 60 38 23 36 39 22 23 16 13 14 19 17 14 19 21 24 19 22 28 21 20 18 20 20 22 23 17 13 14 14 16 13 11 10 10 10 11 11 12
73 64 66 64 74 77 59 38 25 34 30 17 12 11 12 11 16 15 12 18 22 19 19 22 21 19 22 22 24 23 26 23 21 16 14 16 18 15 11 10 9 9 10 10 11
74 67 69 75 87 62 50 41 35 42 33 15 14 11 10 10 18 12 10 15 20 21 17 21 17 18 23 23 21 28 19 19 20 22 26 15 22 14 11 10 10 10 11 12 11
79 68 71 72 46 48 36 34 31 49 45 10 12 15 14 20 17 16 13 13 20 20 20 21 21 22 24 23 19 23 20 21 20 22 23 20 20 16 11 11 11 11 11 12 16
81 72 73 83 69 44 33 31 50 60 39 14 24 28 31 25 19 22 16 14 16 22 18 19 15 17 19 17 18 17 21 21 21 22 31 21 21 19 14 13 10 14 15 18 19
82 76 79 75 58 50 45 54 53 45 13 13 26 23 28 30 26 25 28 31 23 27 27 19 19 17 15 19 19 21 24 32 33 36 35 20 20 19 13 12 12 15 17 20 20
91 77 81 73 56 52 62 62 46 23 18 9 12 21 31 24 27 22 26 31 24 18 19 21 24 17 15 18 20 24 24 34 38 36 29 19 27 19 13 12 14 13 14 19 21
100 91 97 84 54 60 76 79 46 21 12 14 13 24 27 23 25 24 27 25 21 20 25 18 15 12 14 15 16 18 25 20 28 26 33 26 20 15 14 14 16 15 15 19 19
96 95 88 81 68 74 87 60 35 19 14 12 16 15 24 23 28 30 28 21 21 18 19 20 23 13 14 14 14 17 15 25 26 43 44 29 25 22 21 17 17 17 20 21 21
91 96 75 77 80 96 84 58 38 19 15 16 16 14 18 18 23 28 25 19 19 19 18 20 26 20 14 22 20 18 23 23 23 27 39 44 35 22 23 22 24 26 24 24 26
86 89 73 78 95 74 69 49 36 27 19 16 16 16 18 18 19 25 26 21 16 20 24 24 26 31 21 14 16 17 20 20 33 35 31 37 44 22 23 25 24 25 22 21 22
81 63 84 80 91 75 57 46 35 34 27 21 20 19 20 23 24 19 23 19 19 20 31 29 36 38 27 19 15 18 17 19 23 28 35 47 40 21 22 23 22 25 25 24 28
82 94 98 90 57 57 60 54 47 32 28 23 22 22 24 29 21 23 25 24 24 24 49 42 32 26 35 24 17 21 18 18 24 38 40 40 36 28 27 27 24 24 25 23 24
85 78 80 95 84 60 48 43 46 45 32 27 30 29 30 33 26 28 25 40 40 58 41 43 43 31 23 18 18 20 21 22 24 24 33 32 32 28 27 28 27 26 24 23 23
90 72 72 68 71 68 55 49 45 38 36 39 37 32 31 35 31 32 31 35 39 44 44 37 47 35 34 24 24 28 26 28 28 28 27 27 28 24 23 22 24 23 22 22 21
67 48 59 71 80 79 66 52 44 40 36 30 34 36 39 35 32 32 39 41 38 34 41 44 47 53 60 36 40 60 42 37 36 29 29 37 31 27 29 27 25 25 24 24 24

GFSSW_925_rhum_237.txt.gz
RH
58 52 50 48 45 42 42 42 37 34 27 24 20 20 17 16 21 24 26 20 21 19 16 19 20 18 18 20 17 17 26 27 22 16 16 11 10 9 10 13 16 22 34 34 45
63 59 50 48 46 43 39 41 39 36 29 25 21 18 16 15 24 32 22 20 20 18 15 19 21 19 22 18 18 20 25 22 16 12 13 11 10 10 9 10 20 38 38 42 46
63 61 58 52 46 43 41 38 41 36 33 26 22 17 14 16 49 27 25 20 19 20 18 21 21 19 20 18 18 18 20 15 12 12 11 13 11 9 10 12 15 44 44 42 43
68 64 60 56 50 45 41 39 39 37 33 29 22 18 13 30 43 20 21 19 20 20 20 22 23 21 21 23 19 19 14 13 12 10 11 13 14 13 10 10 11 21 39 40 41
64 67 64 58 54 48 44 38 39 37 34 30 23 20 17 42 33 20 20 21 20 22 23 24 24 23 25 22 22 20 17 14 13 13 10 11 13 14 14 12 12 16 30 37 37
65 64 65 62 55 52 46 39 38 38 34 30 24 20 47 40 19 19 20 22 20 22 22 21 21 17 20 21 24 19 18 18 15 16 15 12 13 12 12 12 11 11 13 26 33
66 63 66 64 59 53 47 42 36 38 34 29 27 36 53 30 12 19 20 21 19 18 20 14 14 19 21 24 20 20 25 22 19 16 17 14 17 15 12 11 12 13 12 14 14
72 71 67 64 61 55 48 42 37 34 33 28 29 49 61 11 15 18 19 19 17 16 15 14 17 20 21 21 22 25 25 32 22 18 15 16 19 16 14 13 12 12 13 13 15
85 74 73 68 62 56 50 42 36 34 30 28 34 54 54 23 21 17 16 18 17 16 16 16 19 24 26 32 37 30 37 31 25 18 16 16 18 15 14 13 13 13 14 14 14
94 79 74 73 64 58 50 40 30 36 34 43 48 39 28 20 19 18 16 17 19 18 20 21 29 37 38 39 46 36 33 29 29 20 16 17 18 16 14 14 14 15 14 14 15
99 88 76 76 69 61 49 40 41 59 48 44 38 30 16 17 20 18 17 18 18 22 29 25 33 42 38 34 29 27 28 29 24 20 19 19 18 18 16 16 17 18 16 17 16
99 97 81 78 74 64 60 63 37 38 52 35 30 25 22 18 21 23 17 21 24 31 24 30 35 28 25 25 28 29 31 32 27 21 20 22 22 19 17 17 16 14 18 16 17
99 100 87 79 82 77 66 49 29 38 56 33 24 22 24 19 19 22 20 20 26 32 30 32 26 20 24 26 28 28 32 31 31 24 22 24 25 22 17 15 13 13 16 16 17
100 100 90 90 91 77 73 33 32 38 69 32 20 18 14 14 17 12 15 18 25 29 29 28 18 20 24 27 24 33 26 26 27 30 37 22 35 24 19 16 15 13 14 17 16
100 100 94 91 57 68 44 28 38 50 74 22 16 12 14 17 19 19 12 16 22 28 26 28 25 25 29 27 23 29 24 24 27 34 33 26 35 24 19 19 16 16 16 16 22
100 100 98 94 68 53 37 40 44 91 81 22 30 27 21 18 21 24 19 17 17 23 23 24 20 20 23 20 23 21 24 26 28 33 45 28 33 28 24 19 21 26 27 29 29
98 100 100 93 78 39 58 50 83 92 21 22 36 31 34 32 30 28 29 26 36 38 35 27 26 19 18 21 21 23 31 50 51 50 52 28 29 25 21 18 21 26 26 27 26
93 100 100 86 70 42 59 75 84 37 26 14 26 30 38 36 36 32 36 37 31 28 29 34 37 21 20 23 28 31 35 54 51 54 46 26 34 28 20 16 17 20 26 27 27
83 100 100 90 63 54 80 84 54 30 23 22 19 34 36 32 35 35 35 37 34 32 36 32 28 17 18 19 21 26 38 28 39 40 47 37 29 23 21 23 21 18 27 28 28
100 98 95 89 66 74 87 69 44 28 18 20 25 24 39 34 36 35 36 28 28 26 25 31 31 19 20 19 20 22 20 31 40 49 57 42 34 34 31 26 26 28 23 23 25
99 97 89 88 83 83 88 68 44 28 25 28 26 25 26 33 33 38 36 27 24 24 23 26 30 32 23 25 25 24 27 27 32 38 50 47 49 24 25 22 23 24 24 30 29
95 97 99 88 94 85 82 61 43 39 29 27 25 26 26 28 32 35 36 29 24 24 27 30 40 44 31 22 20 23 27 32 42 44 47 43 47 27 24 27 29 31 28 26 22
96 95 96 84 93 90 66 63 49 42 37 31 32 29 22 27 30 32 32 27 24 27 32 31 40 47 40 27 22 24 25 26 30 39 39 52 47 25 25 26 27 28 28 30 30
96 100 98 92 64 66 74 69 66 42 41 35 31 30 31 32 32 31 29 45 28 42 51 37 42 46 48 34 26 26 24 22 26 44 40 38 35 33 35 35 28 33 33 33 34
96 95 91 95 88 64 64 62 64 58 44 35 39 37 34 40 35 37 29 41 49 53 43 42 49 39 41 32 28 30 28 24 26 26 35 31 31 28 35 35 32 35 33 30 31
98 98 96 84 69 65 60 57 64 54 45 52 46 38 31 39 42 34 29 40 40 52 46 49 50 37 41 35 34 36 30 28 28 26 28 30 32 25 23 25 28 26 28 29 28
92 89 86 78 72 76 68 59 54 49 47 38 41 45 45 33 34 32 37 43 42 54 57 51 59 69 52 40 57 55 43 35 33 31 32 39 31 29 30 27 28 28 28 28 29

GFSSW_925_rhum_240.txt.gz
RH
66 58 57 50 49 47 43 39 37 32 29 26 24 23 18 14 13 22 24 16 19 20 19 23 23 21 22 24 22 22 32 38 30 21 19 13 13 12 16 28 32 31 43 43 53
66 66 61 58 50 47 46 40 37 34 31 26 24 21 17 14 20 28 16 17 21 19 17 19 22 22 27 23 20 24 32 26 20 16 14 13 12 11 10 16 39 42 46 48 62
65 65 66 62 57 49 46 44 38 34 33 28 24 20 15 16 44 31 21 18 21 20 19 20 22 25 26 22 21 21 26 20 18 16 14 14 13 13 11 13 41 46 56 53 58
65 64 64 63 60 55 48 45 42 36 33 30 27 21 14 37 29 20 20 24 21 21 22 20 24 26 24 25 21 23 21 19 15 13 12 14 13 14 12 12 23 43 50 53 58
70 71 66 64 61 58 52 47 42 38 36 32 28 21 17 42 32 20 19 20 21 22 22 23 26 26 27 25 24 24 21 21 19 19 16 13 15 14 15 13 25 42 47 53 55
85 72 70 71 66 60 55 49 43 37 36 35 32 25 38 31 17 20 19 21 22 24 23 25 26 23 22 22 24 23 24 25 23 21 18 16 16 12 12 11 17 45 48 48 50
99 88 73 67 73 67 57 50 44 37 34 36 38 34 61 23 13 20 21 20 18 21 23 21 18 20 23 26 21 23 26 25 23 20 20 17 20 18 14 12 12 40 46 45 44
92 96 86 72 73 74 64 52 44 36 34 35 37 42 52 12 15 18 21 21 21 20 20 18 17 20 22 23 28 29 27 34 24 20 20 18 25 18 16 16 16 15 15 27 41
100 96 92 82 75 78 70 56 42 35 32 36 39 50 51 22 24 20 20 23 20 17 17 16 18 25 28 34 42 35 39 34 30 23 23 20 24 16 14 16 16 16 15 13 18
98 100 96 86 79 82 75 58 38 35 38 48 45 39 26 16 20 19 18 19 21 20 21 20 30 35 43 43 54 39 38 35 34 26 22 26 24 19 16 17 17 16 18 17 16
90 99 100 95 80 89 79 47 41 53 56 41 46 26 19 19 21 19 18 17 20 23 32 27 34 42 40 41 35 37 37 38 32 26 24 28 26 22 18 18 20 19 19 19 18
86 99 99 100 86 92 81 68 43 44 60 45 40 38 27 24 29 22 19 25 27 32 26 30 36 28 28 31 35 38 38 37 31 26 25 29 29 24 20 19 18 19 20 19 17
72 96 99 100 98 99 84 55 40 37 61 47 37 36 32 29 33 27 23 24 27 32 33 38 30 26 27 29 32 31 32 33 34 30 28 26 31 23 21 19 18 18 18 18 17
79 88 100 100 100 95 92 50 41 43 64 39 36 26 20 24 27 19 17 23 26 32 34 36 28 28 28 27 28 36 26 30 28 34 44 26 42 26 24 23 20 18 18 17 19
76 76 98 100 76 91 61 39 42 56 60 27 22 15 20 22 19 17 15 20 26 30 33 35 27 26 29 24 27 31 25 28 27 33 37 32 35 26 22 23 20 22 28 20 20
78 74 90 100 93 66 44 44 50 81 75 30 25 24 25 19 21 24 18 18 19 25 28 27 22 23 26 22 26 22 24 29 37 37 49 36 34 37 27 21 21 30 33 29 29
86 80 91 99 92 62 68 64 92 87 29 29 36 33 25 25 27 30 26 27 26 34 31 24 25 20 21 26 22 26 35 50 48 52 54 32 35 35 26 22 20 26 28 31 36
81 93 96 93 98 65 70 93 95 54 33 20 34 36 29 34 31 34 37 35 26 31 35 33 42 26 23 27 28 33 36 56 54 61 51 31 38 30 22 22 25 25 30 30 32
87 89 99 85 94 87 92 97 78 45 32 26 29 44 45 39 40 37 41 38 28 30 38 40 38 21 19 21 22 33 38 32 40 44 56 45 33 24 23 26 26 22 26 32 32
96 93 88 78 81 96 92 92 67 33 25 25 31 35 45 41 42 44 43 34 34 27 29 31 40 24 22 20 22 29 27 38 49 54 58 49 40 34 26 27 27 28 26 23 27
96 97 68 58 93 98 97 89 71 36 27 28 28 29 40 42 38 46 40 29 30 33 30 34 33 34 24 27 28 28 29 28 34 54 55 57 50 35 26 25 27 29 28 28 31
91 94 59 62 97 93 96 74 58 47 30 32 30 25 32 41 43 41 38 33 28 31 37 35 42 42 32 25 21 24 28 29 43 40 56 56 53 31 28 28 31 34 31 31 34
96 87 63 86 96 98 86 68 54 50 39 34 35 33 30 33 32 41 40 31 33 30 37 38 47 52 43 31 24 26 28 31 37 45 44 53 49 33 33 31 29 29 32 31 31
96 98 85 86 91 92 89 79 69 48 43 36 36 34 32 36 34 33 44 41 36 33 46 34 45 46 48 38 26 28 26 23 28 47 45 49 39 30 32 36 35 33 32 30 30
98 93 74 93 95 89 73 66 73 67 45 39 39 40 36 45 42 37 35 49 49 54 44 40 44 48 42 32 31 32 35 33 33 35 39 29 32 29 30 33 31 32 32 32 32
99 97 74 79 89 91 73 67 66 60 52 58 48 33 38 45 42 44 38 41 42 48 45 50 45 45 41 37 35 43 38 37 35 32 34 29 29 26 23 23 24 27 28 28 29
94 87 85 87 85 91 80 66 63 55 52 40 46 49 41 41 35 34 35 42 44 51 54 56 60 65 55 47 45 51 44 38 32 32 32 38 30 30 32 33 34 34 33 33 31

GFSSW_925_rhum_243.txt.gz
RH
70 69 66 62 56 52 48 41 40 33 34 33 29 23 17 13 13 22 24 15 18 19 21 24 24 23 24 25 25 26 35 40 31 26 20 16 23 18 23 33 40 40 54 51 61
70 68 69 65 61 56 51 48 38 38 33 31 29 23 17 13 21 34 16 14 18 21 20 23 24 24 28 25 24 28 38 28 24 20 20 18 16 12 13 39 38 38 49 67 74
75 72 68 67 64 59 54 49 43 38 35 32 29 22 17 17 32 28 23 17 21 21 19 20 23 26 29 25 23 23 28 23 21 20 21 19 16 14 15 29 38 42 61 72 79
86 76 72 69 66 64 59 52 46 40 35 34 31 24 16 34 20 22 21 20 22 21 22 24 26 27 27 28 23 26 24 22 19 16 18 16 15 14 14 13 15 39 54 68 76
90 85 80 75 70 67 63 58 50 42 37 34 35 28 19 27 22 17 22 24 22 22 24 23 26 27 29 25 24 28 24 24 24 25 21 18 16 16 15 14 30 50 55 64 68
100 91 80 78 74 72 69 60 53 47 40 37 36 34 34 21 14 18 22 21 21 23 25 25 26 25 26 23 25 22 25 27 24 24 23 19 19 15 16 15 38 56 60 61 62
92 96 90 77 72 69 74 66 57 48 42 40 38 42 60 23 13 14 22 20 21 23 25 23 20 19 22 25 23 24 29 28 24 22 22 19 23 20 17 16 15 58 58 59 57
82 87 90 90 78 65 70 73 61 51 45 40 39 44 43 14 13 14 16 22 22 23 22 20 18 21 23 24 30 31 30 33 23 22 21 20 32 22 19 19 18 38 59 56 57
68 86 89 92 93 78 68 72 60 54 46 41 43 50 43 21 23 18 21 22 18 21 22 19 20 26 31 37 46 39 37 35 33 23 23 21 28 22 20 20 19 18 26 47 52
66 85 94 93 97 94 78 70 51 51 48 53 50 42 28 18 15 22 21 22 24 23 22 22 35 35 46 46 52 41 41 40 40 31 24 29 30 26 23 20 20 19 19 21 21
59 67 95 92 94 98 93 63 42 49 66 42 44 29 21 23 21 21 22 24 23 26 34 28 37 43 42 42 38 40 44 46 38 32 30 32 35 29 25 20 21 21 20 21 21
68 62 77 100 94 99 100 73 46 54 63 49 45 45 32 30 32 24 20 25 30 37 31 32 43 33 29 34 40 43 48 46 38 32 30 33 33 29 26 21 19 20 21 22 20
72 68 63 95 100 100 94 76 54 47 62 50 45 43 39 34 39 34 24 27 31 36 36 42 33 28 30 32 35 37 42 38 34 31 29 30 34 27 23 21 21 21 22 21 20
72 69 70 75 100 98 97 69 68 58 71 49 46 38 33 33 36 25 21 24 28 36 36 38 29 31 33 36 33 39 31 32 34 34 42 28 44 29 26 24 22 22 23 25 25
74 74 76 83 100 98 72 48 62 54 88 32 34 22 26 29 26 26 21 25 32 32 34 36 31 34 40 33 29 32 30 32 30 33 37 32 38 31 27 24 24 24 29 33 29
81 76 82 84 83 92 60 61 62 93 91 36 28 33 35 28 23 21 22 20 21 30 31 29 23 25 28 25 26 28 27 36 42 40 49 38 35 40 29 22 26 24 29 32 33
72 86 90 92 84 98 85 69 96 93 37 37 38 32 30 30 29 28 27 27 26 40 38 28 28 26 23 28 23 28 36 52 46 54 52 36 37 37 27 24 24 29 30 36 42
80 82 82 80 76 74 99 91 99 66 40 26 34 39 30 29 31 38 33 31 26 27 34 36 33 25 24 26 26 36 38 57 49 62 51 38 40 30 25 23 28 26 27 28 30
79 92 99 92 76 96 98 99 86 72 41 31 30 45 38 36 31 37 37 31 23 30 28 41 36 25 22 20 21 33 42 32 43 47 56 43 35 27 23 23 28 25 26 29 29
99 96 84 69 79 98 100 97 80 60 37 34 39 43 44 41 43 36 44 35 32 26 28 33 39 28 23 22 25 29 32 44 53 56 63 52 44 39 25 24 26 26 26 29 29
97 98 64 53 87 98 98 95 84 50 47 40 38 34 43 42 39 39 40 30 27 32 26 32 36 32 26 30 33 32 35 34 44 58 57 58 55 40 31 28 27 29 30 34 34
78 89 59 64 97 90 98 89 64 63 45 47 35 31 35 44 43 46 43 35 32 33 33 33 42 46 35 28 24 25 32 37 48 46 57 57 57 29 32 30 32 35 36 38 34
88 86 58 71 91 92 71 89 65 60 56 51 49 38 27 36 46 44 46 33 36 37 41 38 51 56 49 35 27 30 30 32 43 48 50 55 47 32 29 29 31 33 34 36 36
93 96 88 86 76 94 68 92 90 56 56 52 42 41 41 36 37 34 47 36 40 32 53 34 51 52 47 42 31 32 30 33 38 55 48 55 40 30 28 30 32 31 37 38 36
96 90 76 93 90 80 90 82 92 71 56 52 50 41 40 50 39 43 44 49 47 55 45 39 49 48 41 33 30 28 28 31 33 36 39 34 36 30 31 30 30 32 35 33 32
92 85 83 83 74 83 76 95 93 75 56 65 59 47 42 43 47 44 48 51 48 51 55 50 45 47 48 42 39 39 41 37 36 35 37 36 38 31 29 29 30 34 42 43 41
85 70 84 75 79 79 74 73 89 68 57 51 51 48 47 44 34 38 41 46 43 54 60 57 60 66 55 47 42 55 51 48 43 39 36 41 31 29 37 40 42 58 62 59 53